When you browse on this site, cookies collect data to enhance your experience and personalize the content and advertising you see.
Visit our Privacy Policy to learn more. By continuing to use the site, you agree to this use of cookies and data.
  • In Portugal
  • List of Countries
  • For 7 days
  • Water Temperature
  • Satellite Maps
  • Weather Map
  • Weather Widgets
  • user-avatar
    Login

    Hourly Weather Bansko

    Today, 11 December, Tuesday

    Time Temperature Precipitation Wind Pressure Humidity
    00:00 +1°C° 0 mm 2 mps 716 mmHg 87%
    01:00 -1°C° 0 mm 2 mps 716 mmHg 88%
    02:00 -1°C° 0 mm 2 mps 716 mmHg 87%
    03:00 -1°C° 0 mm 2 mps 716 mmHg 86%
    04:00 -1°C° 0 mm 2 mps 716 mmHg 86%
    05:00 -2°C° 0 mm 2 mps 716 mmHg 86%
    06:00 -2°C° 0 mm 2 mps 717 mmHg 85%
    07:00 -2°C° 0 mm 2 mps 717 mmHg 84%
    08:00 -2°C° 0 mm 2 mps 717 mmHg 83%
    09:00 +1°C° 0 mm 2 mps 717 mmHg 75%
    10:00 +2°C° 0 mm 2 mps 718 mmHg 67%
    11:00 +2°C° 0 mm 3 mps 718 mmHg 59%
    12:00 +2°C° 0 mm 3 mps 718 mmHg 57%
    13:00 +3°C° 0 mm 3 mps 718 mmHg 54%
    14:00 +3°C° 0 mm 3 mps 718 mmHg 52%
    15:00 +2°C° 0 mm 3 mps 718 mmHg 57%
    16:00 +2°C° 0 mm 2 mps 718 mmHg 62%
    17:00 -1°C° 0 mm 2 mps 719 mmHg 68%
    18:00 -1°C° 0 mm 2 mps 719 mmHg 70%
    19:00 -2°C° 0 mm 2 mps 719 mmHg 72%
    20:00 -1°C° 0 mm 1 mps 719 mmHg 74%
    21:00 -1°C° 0 mm 1 mps 719 mmHg 74%
    22:00 -1°C° 0 mm 1 mps 720 mmHg 74%
    23:00 -1°C° 0 mm 1 mps 720 mmHg 74%

    Tomorrow, 12 December, Wednesday

    Time Temperature Precipitation Wind Pressure Humidity
    00:00 -1°C° 0 mm 1 mps 720 mmHg 75%
    01:00 -1°C° 0 mm 1 mps 720 mmHg 75%
    02:00 -1°C° 0 mm 1 mps 720 mmHg 76%
    03:00 -1°C° 0 mm 1 mps 720 mmHg 76%
    04:00 -1°C° 0 mm 1 mps 720 mmHg 76%
    05:00 -1°C° 0 mm 1 mps 720 mmHg 76%
    06:00 -1°C° 0 mm 1 mps 721 mmHg 77%
    07:00 -1°C° 0 mm 1 mps 721 mmHg 77%
    08:00 -1°C° 0 mm 1 mps 721 mmHg 78%
    09:00 0°C° 0 mm 1 mps 721 mmHg 71%
    10:00 +1°C° 0 mm 2 mps 722 mmHg 65%
    11:00 +2°C° 0 mm 2 mps 722 mmHg 58%
    12:00 +3°C° 0 mm 2 mps 722 mmHg 55%
    13:00 +3°C° 0 mm 2 mps 721 mmHg 53%
    14:00 +4°C° 0 mm 2 mps 721 mmHg 50%
    15:00 +3°C° 0 mm 2 mps 721 mmHg 57%
    16:00 +2°C° 0 mm 1 mps 721 mmHg 63%
    17:00 +1°C° 0 mm 1 mps 721 mmHg 69%
    18:00 0°C° 0 mm 1 mps 721 mmHg 69%
    19:00 0°C° 0 mm 1 mps 722 mmHg 70%
    20:00 -1°C° 0 mm 1 mps 722 mmHg 70%
    21:00 -1°C° 0 mm 1 mps 722 mmHg 69%
    22:00 -1°C° 0 mm 1 mps 722 mmHg 67%
    23:00 -1°C° 0 mm 1 mps 722 mmHg 66%

    Day after tomorrow, 13 December, Thursday

    Time Temperature Precipitation Wind Pressure Humidity
    00:00 -1°C° 0 mm 1 mps 722 mmHg 65%
    01:00 -1°C° 0 mm 1 mps 722 mmHg 64%
    02:00 -1°C° 0 mm 1 mps 722 mmHg 63%
    03:00 -1°C° 0 mm 1 mps 722 mmHg 61%
    04:00 -1°C° 0 mm 1 mps 722 mmHg 60%
    05:00 -1°C° 0 mm 1 mps 722 mmHg 59%
    06:00 -1°C° 0 mm 1 mps 722 mmHg 58%
    07:00 -1°C° 0 mm 1 mps 722 mmHg 57%
    08:00 -1°C° 0 mm 1 mps 722 mmHg 56%
    09:00 +1°C° 0 mm 1 mps 722 mmHg 49%
    10:00 +3°C° 0 mm 1 mps 722 mmHg 43%
    11:00 +5°C° 0 mm 1 mps 722 mmHg 37%
    12:00 +5°C° 0 mm 1 mps 722 mmHg 37%
    13:00 +5°C° 0 mm 1 mps 721 mmHg 36%
    14:00 +6°C° 0 mm 1 mps 721 mmHg 36%
    15:00 +4°C° 0 mm 1 mps 721 mmHg 42%
    16:00 +3°C° 0 mm 1 mps 721 mmHg 48%
    17:00 +1°C° 0 mm 0 mps 721 mmHg 54%
    18:00 +2°C° 0 mm 1 mps 721 mmHg 55%
    19:00 +2°C° 0 mm 1 mps 721 mmHg 56%
    20:00 +1°C° 0 mm 1 mps 721 mmHg 57%
    21:00 +1°C° 0 mm 1 mps 721 mmHg 58%
    22:00 +1°C° 0 mm 1 mps 721 mmHg 60%
    23:00 +1°C° 0 mm 1 mps 721 mmHg 61%

    14 December, Friday

    Time Temperature Precipitation Wind Pressure Humidity
    00:00 +1°C° 0 mm 1 mps 721 mmHg 63%
    01:00 0°C° 0 mm 1 mps 721 mmHg 65%
    02:00 0°C° 0 mm 1 mps 721 mmHg 66%
    03:00 0°C° 0 mm 1 mps 721 mmHg 67%
    04:00 0°C° 0 mm 1 mps 721 mmHg 67%
    05:00 +1°C° 0 mm 1 mps 721 mmHg 67%
    06:00 +1°C° 0 mm 1 mps 721 mmHg 67%
    07:00 +1°C° 0 mm 1 mps 722 mmHg 67%
    08:00 +2°C° 0 mm 1 mps 722 mmHg 67%
    09:00 +3°C° 0 mm 1 mps 722 mmHg 65%
    10:00 +5°C° 0 mm 1 mps 722 mmHg 62%
    11:00 +6°C° 0 mm 1 mps 722 mmHg 60%
    12:00 +7°C° 0.1 mm 1 mps 722 mmHg 62%
    13:00 +7°C° 0.1 mm 1 mps 722 mmHg 65%
    14:00 +7°C° 0.1 mm 1 mps 722 mmHg 67%
    15:00 +6°C° 0.3 mm 1 mps 722 mmHg 73%
    16:00 +6°C° 0.3 mm 1 mps 722 mmHg 78%
    17:00 +5°C° 0.3 mm 1 mps 722 mmHg 83%
    18:00 +5°C° 0.2 mm 1 mps 722 mmHg 84%
    19:00 +4°C° 0.2 mm 1 mps 722 mmHg 86%
    20:00 +4°C° 0.2 mm 1 mps 722 mmHg 87%
    21:00 +4°C° 0.2 mm 1 mps 722 mmHg 87%
    22:00 +4°C° 0.2 mm 1 mps 722 mmHg 88%
    23:00 +4°C° 0.2 mm 1 mps 722 mmHg 89%

    15 December, Saturday

    Time Temperature Precipitation Wind Pressure Humidity
    00:00 +4°C° 0.4 mm 1 mps 722 mmHg 89%
    01:00 +5°C° 0.4 mm 1 mps 721 mmHg 89%
    02:00 +5°C° 0.4 mm 1 mps 721 mmHg 90%
    03:00 +5°C° 0.2 mm 1 mps 721 mmHg 90%
    04:00 +5°C° 0.2 mm 1 mps 721 mmHg 90%
    05:00 +5°C° 0.2 mm 1 mps 720 mmHg 90%
    06:00 +5°C° 0.2 mm 1 mps 720 mmHg 90%
    07:00 +5°C° 0.2 mm 1 mps 720 mmHg 90%
    08:00 +5°C° 0.2 mm 1 mps 720 mmHg 91%
    09:00 +6°C° 0.1 mm 1 mps 720 mmHg 89%
    10:00 +7°C° 0.1 mm 1 mps 721 mmHg 87%
    11:00 +8°C° 0.1 mm 1 mps 721 mmHg 86%
    12:00 +8°C° 0.4 mm 1 mps 720 mmHg 86%
    13:00 +8°C° 0.4 mm 1 mps 720 mmHg 87%
    14:00 +8°C° 0.4 mm 1 mps 720 mmHg 88%
    15:00 +8°C° 0.5 mm 1 mps 720 mmHg 89%
    16:00 +7°C° 0.5 mm 1 mps 720 mmHg 90%
    17:00 +7°C° 0.5 mm 1 mps 720 mmHg 92%
    18:00 +7°C° 0.3 mm 1 mps 720 mmHg 92%
    19:00 +6°C° 0.3 mm 1 mps 720 mmHg 92%
    20:00 +6°C° 0.3 mm 1 mps 720 mmHg 92%
    21:00 +6°C° 0.4 mm 1 mps 720 mmHg 92%
    22:00 +6°C° 0.4 mm 1 mps 720 mmHg 92%
    23:00 +6°C° 0.4 mm 1 mps 720 mmHg 92%

    16 December, Sunday

    Time Temperature Precipitation Wind Pressure Humidity
    00:00 +6°C° 0.4 mm 1 mps 720 mmHg 92%
    01:00 +6°C° 0.4 mm 1 mps 720 mmHg 92%
    02:00 +6°C° 0.4 mm 1 mps 720 mmHg 92%
    03:00 +5°C° 0.3 mm 1 mps 720 mmHg 92%
    04:00 +5°C° 0.3 mm 1 mps 720 mmHg 92%
    05:00 +4°C° 0.3 mm 2 mps 720 mmHg 91%
    06:00 +4°C° 0.2 mm 2 mps 721 mmHg 91%
    07:00 +4°C° 0.2 mm 2 mps 721 mmHg 90%
    08:00 +4°C° 0.2 mm 2 mps 721 mmHg 90%
    09:00 +4°C° 0.1 mm 2 mps 722 mmHg 88%
    10:00 +4°C° 0.1 mm 2 mps 722 mmHg 86%
    11:00 +5°C° 0.1 mm 2 mps 723 mmHg 84%
    12:00 +4°C° 0 mm 3 mps 723 mmHg 83%
    13:00 +5°C° 0 mm 3 mps 723 mmHg 82%
    14:00 +5°C° 0 mm 3 mps 723 mmHg 81%
    15:00 +4°C° 0 mm 3 mps 723 mmHg 83%
    16:00 +4°C° 0 mm 2 mps 723 mmHg 85%
    17:00 +4°C° 0 mm 2 mps 724 mmHg 87%
    18:00 +3°C° 0 mm 2 mps 724 mmHg 87%
    19:00 +2°C° 0 mm 2 mps 724 mmHg 88%
    20:00 +2°C° 0 mm 2 mps 725 mmHg 89%
    21:00 +2°C° 0 mm 2 mps 725 mmHg 89%
    22:00 +2°C° 0 mm 2 mps 725 mmHg 88%
    23:00 +1°C° 0 mm 2 mps 726 mmHg 88%
    Show more